Skip Page Navigation
NASA JPL Caltech
NASA Logo - Jet Propulsion Laboratory + View the NASA Portal
+ Center for Near-Earth Object Studies
JPL Home Earth Solar System Stars & Galaxies Technology
JPL Solar System Dynamics
BODIES ORBITS EPHEMERIDES TOOLS PHYSICAL DATA DISCOVERY FAQ SITE MAP
JPL Small-Body Database Browser
Search: [ help ]  
72467 (2001 DK24)
Classification: Main-belt Asteroid          SPK-ID: 2072467
Ephemeris | Orbit Diagram | Orbital Elements | Mission Design | Physical Parameters | Discovery Circumstances | Close-Approach Data ]

[ show orbit diagram ]
Orbital Elements at Epoch 2459200.5 (2020-Dec-17.0) TDB
Reference: JPL 21 (heliocentric ecliptic J2000)
 Element Value Uncertainty (1-sigma)   Units 
e .2735109714194173 5.0916e-08  
a 2.548224913667043 1.5277e-08 au
q 1.851257442134809 1.2258e-07 au
i 4.576522884751117 6.9353e-06 deg
node 123.6725910214778 5.3595e-05 deg
peri 257.7635197389392 5.5954e-05 deg
M 53.74631835802141 1.7323e-05 deg
tp 2458978.679702952352
(2020-May-09.17970295)
7.0833e-05 TDB
period 1485.781898682096
4.07
1.3361e-05
3.658e-08
d
yr
n .242296665694557 2.1788e-09 deg/d
Q 3.245192385199277 1.9455e-08 au
  Orbit Determination Parameters
   # obs. used (total)      767  
   data-arc span      16543 days (45.29 yr)  
   first obs. used      1975-11-02  
   last obs. used      2021-02-16  
   planetary ephem.      DE441  
   SB-pert. ephem.      SB441-N16  
   condition code      0  
   norm. resid. RMS      .52528  
   source      ORB  
   producer      Otto Matic  
   solution date      2021-Apr-13 13:02:13  

Additional Information
 Earth MOID = .859315 au 
 Jupiter MOID = 2.22751 au 
 T_jup = 3.384 
[ show covariance matrix ]

Ephemeris | Orbit Diagram | Orbital Elements | Mission Design | Physical Parameters | Discovery Circumstances | Close-Approach Data ]

Physical Parameter Table
Parameter Symbol Value Units Sigma Reference Notes
absolute magnitude H 15.43   n/a MPCxxxxx  

72467 (2001 DK24)          Discovered 2001-Feb-17 by LINEAR at Socorro
Reference: 20031109/Numbers.arcLast Updated: 2004-04-19

[ show close-approach data ]
Alternate Designations
 2001 DK24 = 1975 VB5 = 1991 RU22 = 1999 RJ49 
Ephemeris | Orbit Diagram | Orbital Elements | Mission Design | Physical Parameters | Discovery Circumstances | Close-Approach Data ]
ABOUT SSD CREDITS/AWARDS PRIVACY/COPYRIGHT GLOSSARY LINKS
FirstGov 2021-Jun-13 09:03 UT
(server date/time)  
NASA Home Page
Site Manager:   Ryan S. Park
Webmaster  Alan B. Chamberlin